sat.trackr.live / text

‹ back to catalog

KANYINI

NORAD 60556 · 2024-149CS

PAYLOAD ACTIVE UNKNOWN

§ Identity

Operator
Country
AUS
Launch date
2024-08-16
Launch site
AFWTR
Launch vehicle
Mass (kg)
RCS (m²)

External: N2YO · Heavens-Above · Gunter

§ Orbital elements

Epoch: 2026-05-25T04:33:25.424640Z

Period
92.85 min
Inclination
97.3729°
Eccentricity
0.0000710
Mean motion
15.50867760 rev/d
Perigee alt
413.7 km
Apogee alt
414.7 km
Semi-major
6,792.3 km
B*
6.4951e-4
RAAN
231.4824°
Arg perigee
3.8642°
Mean anomaly
356.2615°
Rev number
9,894

§ Raw data

KANYINI1 60556U 24149CS  26145.18987760  .00037559  00000+0  64951-3 0  99922 60556  97.3729 231.4824 0000710   3.8642 356.2615 15.50867760 98949

JSON: /api/v1/satellites/60556 · /tle

For live sub-satellite position, see the globe view (requires WebGL).

§ Visibility from observer

Set your observer location to see the next 7 days of passes ≥ 10°. The values pass through the URL so the page stays shareable.

No JS? Fill the form by hand. The geolocation button needs JavaScript.

§ Radio — SatNOGS DB

ModeDescriptionDownlinkUplink
FSK Apogee TT&C Beacon 400.500 MHz

1 transmitter · refreshed weekly from db.satnogs.org